[[{"header":{"parameterUnit":"m.s-1","parameterCategory":1,"la1":30.2991,"la2":30.254,"lo1":-89.0895,"lo2":-89.0444,"dy":0.0017,"dx":0.0017,"nx":28,"ny":28,"refTime":"2024-07-25T03:00:00:Z","depth":0,"parameterNumber":2,"parameterNumberName":"U-component_of_WINDS"},"data":[0,0,0,0,0,0,0,0,0,0,0,0,0,0,0,0,0,0,0,0,0,0,0,0,0,0,0,0,0,0,0,0,0,0,0,0,0,0,0,0,0,0,0,0,0,0,0,0,0,0,0,0,0,0,0,0,0,0,-1.5332,-1.5331,0,-1.5237,-1.5236,-1.5234,-1.5179,-1.5178,-1.5178,-1.5178,-1.508,-1.5078,-1.5076,0,0,0,0,0,0,0,0,0,0,0,0,0,-1.5468,-1.5465,-1.5332,-1.5331,-1.533,-1.5237,-1.5235,-1.5234,-1.5179,-1.5178,-1.5178,-1.5178,-1.5081,-1.5078,-1.5075,0,0,0,0,0,0,0,0,0,0,0,0,0,-1.5394,-1.5465,-1.5332,-1.5291,-1.5286,-1.5237,-1.5235,-1.5234,-1.5179,-1.5178,-1.5178,-1.5178,-1.5082,-1.5079,-1.5075,-1.506,0,0,-1.5064,-1.5063,0,0,0,0,0,0,0,0,-1.5398,-1.5389,-1.5298,-1.5294,-1.5288,-1.5219,-1.5247,-1.5175,-1.5179,-1.522,-1.5178,-1.5178,-1.5127,-1.512,-1.5102,-1.5055,-1.5051,-1.5064,-1.5062,-1.506,-1.5059,0,0,0,0,0,0,0,-1.5404,-1.5393,-1.5294,-1.5297,-1.5291,-1.5277,-1.5267,-1.5233,-1.5176,-1.5216,-1.5212,-1.5201,-1.5124,-1.5106,-1.51,-1.505,-1.5064,-1.5061,-1.5059,-1.5057,-1.4986,-1.4986,0,0,0,0,0,0,-1.5415,-1.5398,-1.5297,-1.5292,-1.5344,-1.5275,-1.5263,-1.5242,-1.5177,-1.5166,-1.5202,-1.5199,-1.5112,-1.5104,-1.5096,-1.5074,-1.506,-1.5057,-1.5055,-1.4986,-1.4986,-1.4986,0,0,0,0,0,0,-1.5418,-1.5407,-1.5301,-1.5343,-1.5329,-1.5273,-1.525,-1.524,-1.5222,-1.5166,-1.5155,-1.5194,-1.5112,-1.5101,-1.5069,-1.507,-1.5055,-1.5052,-1.4985,-1.4986,-1.4986,-1.5031,0,0,0,0,0,0,-1.5422,-1.5408,-1.5402,-1.5344,-1.5327,-1.5276,-1.525,-1.5238,-1.5216,-1.5212,-1.5155,-1.5146,-1.5111,-1.5075,-1.5066,-1.5065,-1.5049,-1.4985,-1.4986,-1.4986,-1.5029,-1.5033,-1.5036,0,0,0,0,0,-1.5427,-1.5418,-1.5401,-1.539,-1.5317,-1.5276,-1.5267,-1.5226,-1.5216,-1.5209,-1.5173,-1.5147,-1.5072,-1.5072,-1.5061,-1.506,-1.4985,-1.4985,-1.4986,-1.5028,-1.5032,-1.5036,0,0,0,0,0,0,-1.5477,-1.5409,-1.5391,-1.5362,-1.5325,-1.5267,-1.5257,-1.5232,-1.5198,-1.5195,-1.5147,-1.5135,-1.5108,-1.508,-1.5082,-1.5042,-1.5025,-1.5024,-1.5061,-1.5065,-1.5068,-1.5075,-1.5046,0,0,0,0,0,-1.5485,-1.5457,-1.5399,-1.5379,-1.5362,-1.5313,-1.5293,-1.5266,-1.5226,-1.521,-1.5172,-1.5134,-1.5102,-1.5082,-1.5049,-1.5025,-1.5012,-1.5018,-1.5022,-1.5025,-1.5024,-1.501,-1.5013,-1.4988,-1.4988,-1.4988,0,0,-1.55,-1.546,-1.5445,-1.5388,-1.5357,-1.5329,-1.53,-1.5272,-1.5251,-1.5206,-1.5174,-1.5144,-1.5099,-1.5072,-1.5058,-1.5048,-1.5028,-1.5026,-1.5028,-1.5026,-1.5011,-1.5014,-1.5016,-1.4989,-1.4989,-1.4988,0,0,-1.5514,-1.548,-1.5461,-1.543,-1.5382,-1.535,-1.5345,-1.5291,-1.527,-1.5237,-1.5202,-1.5177,-1.5122,-1.5092,-1.5069,-1.5073,-1.5049,-1.5064,-1.5082,-1.5069,-1.5071,-1.5072,-1.5074,-1.5076,-1.5063,-1.5063,-1.5064,0,-1.5539,-1.5496,-1.5454,-1.5428,-1.5404,-1.5362,-1.5342,-1.5314,-1.5259,-1.5244,-1.5234,-1.5165,-1.5131,-1.5096,-1.5098,-1.508,-1.5074,-1.507,-1.5074,-1.5075,-1.5076,-1.5077,-1.5078,-1.5066,-1.5065,-1.5065,-1.5065,0,-1.553,-1.5501,-1.549,-1.5438,-1.5413,-1.5391,-1.5345,-1.5325,-1.53,-1.5269,-1.5237,-1.5195,-1.5154,-1.5143,-1.5118,-1.5105,-1.5101,-1.5083,-1.5066,-1.5081,-1.5082,-1.5082,-1.5069,-1.5068,-1.5067,-1.5067,0,0,-1.5572,-1.5497,-1.5494,-1.547,-1.5415,-1.5392,-1.5368,-1.5327,-1.5312,-1.5275,-1.5254,-1.5209,-1.5193,-1.5167,-1.5138,-1.5127,-1.5134,-1.5111,-1.5109,-1.5117,-1.5118,-1.5132,-1.5133,-1.5117,-1.5117,-1.5117,-1.5122,0,-1.5578,-1.5532,-1.5494,-1.5462,-1.5435,-1.5395,-1.5374,-1.5339,-1.5309,-1.5282,-1.525,-1.5219,-1.5199,-1.5184,-1.5171,-1.5136,-1.5133,-1.5135,-1.5097,-1.5097,-1.511,-1.5133,-1.5148,-1.5154,-1.5122,-1.5122,-1.5122,0,-1.5579,-1.5545,-1.5511,-1.5459,-1.5447,-1.5428,-1.5389,-1.5363,-1.5323,-1.5302,-1.5274,-1.5244,-1.5218,-1.5203,-1.5166,-1.5168,-1.515,-1.5131,-1.513,-1.5125,-1.511,-1.513,-1.5155,-1.5157,-1.5121,-1.5121,-1.5121,0,-1.5614,-1.5559,-1.5532,-1.5512,-1.5452,-1.544,-1.5414,-1.5373,-1.5352,-1.5317,-1.5303,-1.5266,-1.5246,-1.5218,-1.5179,-1.5172,-1.5146,-1.5128,-1.5129,-1.513,-1.5125,-1.5126,-1.5149,-1.5113,-1.5113,-1.5113,-1.5113,0,-1.5625,-1.5606,-1.5547,-1.553,-1.5508,-1.5464,-1.5443,-1.5414,-1.5378,-1.5356,-1.5319,-1.5298,-1.5248,-1.5222,-1.5191,-1.5166,-1.5157,-1.514,-1.5132,-1.5143,-1.5145,-1.5131,-1.513,-1.5114,-1.5114,-1.5114,-1.5114,0,-1.566,-1.562,-1.5587,-1.5533,-1.5519,-1.5505,-1.5459,-1.5441,-1.541,-1.5382,-1.5373,-1.5324,-1.5291,-1.525,-1.5204,-1.5183,-1.5161,-1.5149,-1.5175,-1.5171,-1.5174,-1.5174,-1.5188,-1.5188,-1.5153,-1.5154,-1.5154,0,-1.567,-1.5655,-1.5599,-1.5581,-1.5557,-1.5529,-1.5507,-1.5463,-1.5442,-1.5395,-1.5384,-1.5348,-1.5318,-1.5267,-1.5228,-1.5193,-1.518,-1.5187,-1.5174,-1.5186,-1.518,-1.5182,-1.5181,-1.519,-1.5191,-1.5192,-1.5192,0,-1.5693,-1.5674,-1.5643,-1.5606,-1.5581,-1.555,-1.5517,-1.5505,-1.5455,-1.5433,-1.5399,-1.5376,-1.5329,-1.5295,-1.5255,-1.5228,-1.5202,-1.5196,-1.5195,-1.5206,-1.5222,-1.5214,-1.5185,-1.5196,-1.5196,-1.5195,-1.5195,-1.5195,-1.5716,-1.5701,-1.5659,-1.5627,-1.5598,-1.5568,-1.555,-1.5516,-1.5487,-1.5446,-1.5423,-1.539,-1.535,-1.5294,-1.5269,-1.5243,-1.5233,-1.5231,-1.523,-1.523,-1.5234,-1.5226,-1.5236,-1.5235,-1.5235,-1.5235,-1.5235,0,-1.5737,-1.5709,-1.5679,-1.5635,-1.561,-1.5587,-1.555,-1.5531,-1.5503,-1.5468,-1.5439,-1.54,-1.5367,-1.5325,-1.5289,-1.5277,-1.5264,-1.5269,-1.5269,-1.5264,-1.5245,-1.525,-1.528,-1.528,-1.528,-1.528,-1.528,-1.528,-1.5745,-1.5718,-1.5694,-1.5653,-1.5625,-1.5593,-1.5573,-1.5546,-1.5518,-1.5477,-1.545,-1.5423,-1.5385,-1.5347,-1.5315,-1.5304,-1.5293,-1.5301,-1.5287,-1.5269,-1.5265,-1.5261,-1.5266,-1.5299,-1.5299,-1.5308,-1.5308,-1.5308]},{"header":{"parameterUnit":"m.s-1","parameterCategory":1,"la1":30.2991,"la2":30.254,"lo1":-89.0895,"lo2":-89.0444,"dy":0.0017,"dx":0.0017,"nx":28,"ny":28,"refTime":"2024-07-25T03:00:00:Z","depth":0,"parameterNumber":3,"parameterNumberName":"V-component_of_WINDS"},"data":[0,0,0,0,0,0,0,0,0,0,0,0,0,0,0,0,0,0,0,0,0,0,0,0,0,0,0,0,0,0,0,0,0,0,0,0,0,0,0,0,0,0,0,0,0,0,0,0,0,0,0,0,0,0,0,0,0,0,2.4049,2.405,0,2.4108,2.4109,2.411,2.419,2.4191,2.4192,2.4194,2.4251,2.4251,2.4251,0,0,0,0,0,0,0,0,0,0,0,0,0,2.4003,2.4003,2.4049,2.405,2.405,2.4108,2.4109,2.411,2.4189,2.4191,2.4193,2.4194,2.4251,2.4251,2.4251,0,0,0,0,0,0,0,0,0,0,0,0,0,2.4039,2.4004,2.4049,2.4097,2.4102,2.4108,2.4109,2.411,2.4189,2.4191,2.4193,2.4195,2.4251,2.4251,2.4251,2.4214,0,0,2.4253,2.4253,0,0,0,0,0,0,0,0,2.4036,2.404,2.4089,2.4094,2.4099,2.4144,2.4114,2.4145,2.4189,2.4156,2.4194,2.4196,2.4213,2.4217,2.4224,2.4216,2.4219,2.4253,2.4253,2.4253,2.4253,0,0,0,0,0,0,0,2.4034,2.4038,2.4072,2.409,2.4096,2.4115,2.4123,2.412,2.4172,2.4159,2.4165,2.4171,2.4216,2.4223,2.4225,2.422,2.4253,2.4253,2.4253,2.4253,2.4185,2.4183,0,0,0,0,0,0,2.4025,2.4035,2.407,2.4074,2.4072,2.4115,2.4123,2.4127,2.4173,2.4182,2.4169,2.4174,2.4221,2.4225,2.4228,2.4186,2.4253,2.4254,2.4254,2.4187,2.4185,2.4183,0,0,0,0,0,0,2.4023,2.4027,2.4068,2.4056,2.4063,2.4113,2.4118,2.4127,2.4134,2.4181,2.419,2.4166,2.4223,2.4227,2.4217,2.4189,2.4254,2.4254,2.419,2.4187,2.4184,2.4103,0,0,0,0,0,0,2.4022,2.4026,2.4012,2.4056,2.4064,2.4056,2.4116,2.4127,2.4135,2.4142,2.418,2.4188,2.4225,2.4216,2.4217,2.4191,2.4254,2.4192,2.4188,2.4185,2.4108,2.4097,2.4088,0,0,0,0,0,2.402,2.3986,2.4011,2.4015,2.4047,2.4055,2.4059,2.4102,2.4132,2.4119,2.4149,2.4187,2.4193,2.4214,2.4216,2.419,2.4194,2.4189,2.4185,2.4113,2.41,2.4088,0,0,0,0,0,0,2.3936,2.3992,2.4021,2.4,2.4022,2.4068,2.4052,2.4087,2.41,2.4106,2.4159,2.4167,2.415,2.417,2.4192,2.4156,2.4199,2.4195,2.4144,2.4132,2.4122,2.4116,2.4255,0,0,0,0,0,2.3916,2.3918,2.3967,2.3944,2.3954,2.4001,2.4006,2.4038,2.4062,2.4071,2.4101,2.4122,2.4129,2.4132,2.414,2.4113,2.4122,2.4096,2.4086,2.4077,2.4072,2.4059,2.4048,2.4167,2.4167,2.4168,0,0,2.3873,2.3904,2.3901,2.3928,2.3949,2.3949,2.4008,2.4005,2.4006,2.407,2.4062,2.4085,2.4113,2.4093,2.4086,2.4109,2.4042,2.4071,2.4064,2.4064,2.4053,2.4041,2.4031,2.4164,2.4165,2.4165,0,0,2.3794,2.3818,2.3802,2.3822,2.3854,2.3886,2.3882,2.3923,2.3941,2.3935,2.3984,2.3985,2.3995,2.4013,2.4023,2.3954,2.399,2.3956,2.3903,2.3889,2.388,2.3872,2.3846,2.3836,2.3951,2.3951,2.3951,0,2.3736,2.3739,2.3789,2.3784,2.3794,2.3855,2.3839,2.3856,2.3888,2.3893,2.3919,2.3934,2.3957,2.3943,2.3926,2.3933,2.393,2.395,2.3877,2.387,2.3863,2.3839,2.3829,2.3947,2.3947,2.3947,2.3948,0,2.3666,2.3667,2.365,2.3681,2.369,2.3679,2.3727,2.373,2.3762,2.3792,2.3785,2.3815,2.3831,2.3831,2.3861,2.3821,2.3834,2.3868,2.3912,2.3846,2.3824,2.3816,2.394,2.3942,2.3943,2.3944,0,0,2.3532,2.3594,2.3587,2.3602,2.3642,2.3644,2.3637,2.3654,2.3655,2.3676,2.367,2.3679,2.3711,2.3723,2.3757,2.3745,2.3688,2.3781,2.3782,2.3761,2.3645,2.3618,2.3606,2.3713,2.3712,2.3711,2.3642,0,2.346,2.3451,2.3497,2.3476,2.3478,2.3537,2.3531,2.3555,2.3583,2.3588,2.3619,2.3624,2.3667,2.3674,2.3666,2.3697,2.3665,2.3703,2.3707,2.3707,2.3696,2.3595,2.3566,2.35,2.3634,2.3633,2.3632,0,2.3373,2.3391,2.337,2.3414,2.3416,2.3409,2.343,2.3435,2.3463,2.3485,2.3499,2.3539,2.3534,2.3578,2.3572,2.3596,2.3602,2.3618,2.3616,2.3616,2.3663,2.3591,2.348,2.347,2.3619,2.362,2.3621,0,2.3277,2.3296,2.3286,2.3298,2.3348,2.3342,2.3362,2.3393,2.3401,2.3419,2.3425,2.3442,2.345,2.3462,2.3505,2.3533,2.3494,2.3541,2.351,2.3509,2.3497,2.3496,2.3383,2.3503,2.3503,2.3503,2.3504,0,2.319,2.3174,2.3244,2.3237,2.3222,2.3276,2.3259,2.3285,2.3313,2.3312,2.3365,2.3363,2.3422,2.3426,2.346,2.345,2.3454,2.347,2.3479,2.3464,2.3462,2.3466,2.3471,2.3501,2.3502,2.3502,2.3502,0,2.3078,2.3124,2.3117,2.3166,2.3179,2.3165,2.3207,2.3203,2.3236,2.3234,2.3237,2.3287,2.3296,2.3341,2.336,2.3383,2.336,2.3379,2.335,2.3355,2.3321,2.3323,2.3205,2.3192,2.3321,2.332,2.3319,0,2.3018,2.3008,2.3057,2.3061,2.308,2.3085,2.3095,2.3148,2.3155,2.3189,2.318,2.3194,2.3207,2.3217,2.3255,2.327,2.3289,2.3247,2.3291,2.3277,2.3286,2.3285,2.3284,2.3236,2.3234,2.3233,2.3232,0,2.2907,2.2931,2.2942,2.2962,2.2972,2.299,2.3011,2.3011,2.3071,2.3076,2.3086,2.3097,2.3117,2.3129,2.3151,2.3171,2.3211,2.3218,2.3211,2.3195,2.3178,2.3186,2.3322,2.322,2.3221,2.3222,2.3222,2.3223,2.2818,2.2812,2.2846,2.2857,2.288,2.2899,2.2898,2.2931,2.2941,2.2962,2.2994,2.2999,2.303,2.3064,2.3081,2.3086,2.3109,2.3099,2.3097,2.3093,2.3085,2.3179,2.3091,2.3091,2.3092,2.3092,2.3092,0,2.2708,2.2734,2.2744,2.2773,2.2782,2.2822,2.2848,2.2852,2.2857,2.2883,2.2896,2.2908,2.292,2.296,2.2977,2.2973,2.2992,2.2976,2.2975,2.2979,2.3065,2.3068,2.296,2.296,2.296,2.296,2.2961,2.2961,2.2652,2.2644,2.2672,2.2676,2.2702,2.2709,2.272,2.2738,2.2759,2.2771,2.2782,2.2809,2.2841,2.2861,2.2874,2.2885,2.2888,2.2866,2.2883,2.2961,2.2973,2.2985,2.2989,2.2866,2.2866,2.2797,2.2796,2.2796]}]]